ATLAS 5 CENTAUR R/B, 42916

Orbit data source: Space-Track

ATLAS 5 CENTAUR R/B, 42916 is space debris in HEO originally from a launch on Fri, 18 Aug 2017 UTC launched from the Air Force Eastern Test Range (AFETR). Debris objects in space refer to the collection of defunct objects orbiting the Earth. Examples of debris include non-operational satellites, rocket bodies, and fragments generated from explosions, collisions, or faulty payload assembly.

Loading next visibility...
ATLAS 5 CENTAUR R/B details
Identifier
42916, 2017-047B
Orbit
HEO
Last TLE update19 hours ago
Origin
Flag of USULA (US)
ManufacturerULA Decatur
MissionSpacecraft
Bus & MotorCENTAUR SEC, RL10C-1
Mass~2,020 kg wet, 2,020 kg dry
Launch date (UTC)
2017-08-18 (7 years ago)
Launch vehicleUnknown
Launch site
Air Force Eastern Test Range (AFETR)
Object type
Payload
Rocket body
Debris
Shape & HBRCyl + 1 Nozzle, 11.7 m
Radar Cross Section32.260 m², Large (>1 m²)

Expand to show TLE details & history

TLE from 19 hours ago
0 ATLAS 5 CENTAUR R/B
1 42916U 17047B   24361.00281660 -.00000051  00000-0  00000-0 0  9997
2 42916  26.2722 281.9812 5802424 146.2983 270.0467  2.06614745 55544
Epoch: 2024-12-26T00:04Z
Definitive object data (Epoch: 2024-12-26T00:04:03.354Z)
Latitude0.00004°
Longitude-174.04407°
Altitude27,029.163 km
Speed2.925 km/s
True Right ascension18h 47m 50s
True Declination0° 00' 00"
Sunlit
Object was in daylight at TLE epoch
Visualization TLE readout
Latitude-19.593°
Longitude139.82368°
Altitude32,771.078 km
Speed2.249 km/s
Apparent Right ascension15h 22m 20s
Apparent Declination-27° 23' 08"
Sunlit
Object is in daylight
Visualization observer readout
Local Sidereal Time18:16:09
Azimuth218.55° SW
Elevation11.491°
Doppler factor1
Orbital elements
Apogee altitude34,773.629 km
Perigee altitude4,552.95 km
Semi-major axis26,041.427 km
Eccentricity0.5802424
Inclination26.2722°
RAAN281.9812°
Arg. of periapsis146.2983°
True anomaly213.76033°
Mean anomaly270.0467°
Eccentric anomaly240.97626°
Mean motion0.51647 °/min
BSTARUnknown
Orbital period697.04 mins
Loading maneuver chart data...
Loading historical data...
Loading historical data...
Loading historical data...
Loading historical data...
Loading historical data...
Loading historical data...
Loading historical data...
Other satellites on launch #47 in the year 2017 (2017-08-18 UTC)

ATLAS 5 CENTAUR R/B Visibility forecast

Observer location: undefined°, undefined

Span
Click to sort rows by Start time (UTC) header in descending order
Start Az.
Max El. time (UTC)
Max El. Az.
Max El.
End time (UTC)
End Az.
436 mins2024-12-26 18:53:35.277Z218.54° SW2024-12-27 01:47:35.277Z188.004° SSW41.781°2024-12-27 02:09:35.277Z110.768° ESE
138 mins2024-12-27 16:35:35.277Z204.898° SW2024-12-27 18:53:35.277Z213.342° SW17.022°2024-12-27 18:53:35.277Z213.342° SW
|